Weather Roundup
Issued by NWS Chicago, IL

Home | Current Version | Previous Version | Graphics & Text | Print | Product List | Glossary On
Versions: 1 2 3 4 5 6 7 8 9 10 11 12 13 14 15 16 17 18 19 20 21 22 23 24 25 26 27 28 29 30 31 32 33 34 35 36 37 38 39 40 41 42 43 44 45 46 47 48 49 50
000
NZUS59 KLOT 240504
HRRLOT

CHICAGO AREA WEATHER ROUNDUP
NATIONAL WEATHER SERVICE CHICAGO/ROMEOVILLE IL
1200 AM CDT WED AUG 24 2016

NOTE: "FAIR" INDICATES FEW OR NO CLOUDS BELOW 12,000 FEET WITH NO
SIGNIFICANT WEATHER AND/OR OBSTRUCTIONS TO VISIBILITY.

* THESE STATIONS ARE NOT UNDER NWS QUALITY CONTROL. THEY ALSO MAY NOT
  REPORT WEATHER SUCH AS PRECIPITATION OR FOG.

ILZ005-006-012>014-019>023-240600-
NORTHEAST ILLINOIS

CITY           SKY/WX    TMP DP  RH WIND       PRES   REMARKS
OHARE          CLOUDY    74  62  66 S12       30.07F
MIDWAY         CLOUDY    76  61  59 S12       30.08F
AURORA         CLOUDY    74  65  73 S12       30.08F
LANSING*       CLOUDY    72  62  71 S9        30.11S
JOLIET*        CLOUDY    73  65  77 S6        30.09F
WAUKEGAN       CLOUDY    74  62  66 S10       30.05F
DUPAGE AIRPORT CLOUDY    73  63  70 S13       30.07F
WHEELING       CLOUDY    75  62  64 S16       30.08F
KANKAKEE*      PTCLDY    68  64  86 S5        30.12S
MORRIS*        CLOUDY    71  65  81 S9        30.08S
LEWIS AIRPORT* CLOUDY    72  62  71 S10       30.09F
NORTHERLY ISL    N/A     74  61  63 S7          N/A
$$

WIZ051-052-058>065-066-070>072-240600-
SOUTHEAST WISCONSIN

CITY           SKY/WX    TMP DP  RH WIND       PRES   REMARKS
MILWAUKEE      MOCLDY    73  61  65 S9        30.04F
KENOSHA*       CLOUDY    73  62  68 S9        30.06F
RACINE*        CLOUDY    73  63  70 S13       30.07F
BURLINGTON     CLOUDY    70  61  73 S7        30.04F
WAUKESHA       CLOUDY    70  59  68 S10       30.05F
$$

INZ001>003-010>013-019-020-240600-
NORTHWEST INDIANA

CITY           SKY/WX    TMP DP  RH WIND       PRES   REMARKS
GARY*          MOCLDY    73  64  74 S7        30.11S
MICHIGAN CITY* NOT AVBL
RENSSELAER*    NOT AVBL
VALPARAISO     CLEAR     68  61  78 SE6       30.13F
$$

LMZ740>746-240600-
SOUTHERN LAKE MICHIGAN

STATION/POSITION TIME  SKY/WX   TEMP WIND        PRES    VSBY
                                AIR  DIR/SP/G
                 (UTC)          (F)  (DEG/KT/KT) (MB)    (MI)
HARRISON CRIB    0400            73  180/ 13/ 14   N/A
BURNHAM HARBOR   0500            74  180/  7/ 11   N/A
CALUMET HARBOR   0400            74  160/ 11/ 14 1018.8F
BURNS HARBOR     0401            73  170/  7/ 16 1020.0F
MICHIGAN CITY    0400            72  140/ 10/ 12   N/A
$$

ABBREVIATIONS USED IN REMARKS
   TC - TEMPERATURE IN CELSIUS
  WCI - WIND CHILL INDEX
   HX - HEAT INDEX
  VSB - VISIBILITY
$$




USA.gov is the U.S. government's official web portal to all federal, state and local government web resources and services.